Garden City, KS

5:57 PM CDT on June 26, 2017 (GMT -0500)
Garden City Regional

Weather History for KGCK - April, 2013

Change the Weather History Date:

Thursday, April 4, 2013

  Actual Average Record
Temperature  
Mean Temperature 47 °F 49 °F  
Max Temperature 65 °F 64 °F 88 °F (1967)
Min Temperature 28 °F 35 °F 19 °F (1950)
Degree Days  
Heating Degree Days 18 16  
Month to date heating degree days 102 66  
Since 1 July heating degree days 4652 4754  
Cooling Degree Days 0 0  
Month to date cooling degree days 0 0  
Year to date cooling degree days 0 0  
Moisture  
Dew Point 30 °F    
Average Humidity 61    
Maximum Humidity 100    
Minimum Humidity 22    
Precipitation  
Precipitation 0.00 in 0.05 in 1.04 in (1962)
Month to date precipitation 0.01 0.20  
Year to date precipitation 0.43 2.54  
Sea Level Pressure  
Sea Level Pressure 30.17 in    
Wind  
Wind Speed 7 mph (SSW)    
Max Wind Speed 14 mph    
Max Gust Speed 16 mph    
Visibility 6 miles    
Events Fog    
T = Trace of Precipitation, MM = Missing Value Source: NWS Daily Summary

Daily Weather History Graph

Daily Weather History Graph

Search for Another Location

Airport or City:

Trip Planner

Search our weather history database for the weather conditions in past years. The results will help you decide how hot, cold, wet, or windy it might be!

Date:

Astronomy

Apr. 04, 2013 Rise Set
Actual Time 7:23 AM CDT 8:08 PM CDT
Civil Twilight 6:56 AM CDT 8:35 PM CDT
Nautical Twilight 6:25 AM CDT 9:07 PM CDT
Astronomical Twilight 5:52 AM CDT 9:39 PM CDT
Moon 3:45 AM CDT (4/4) 2:34 PM CDT (4/4)
Length of Visible Light 13h 39m
Length of Day
12h 45m
Waning Crescent, 33% of the Moon is Illuminated
Apr 4
Waning Crescent
Apr 10
New
Apr 18
First Quarter
Apr 25
Full
May 2
Last Quarter

Hourly Weather History & Observations

Time (CDT) Temp. Windchill Dew Point Humidity Pressure Visibility Wind Dir Wind Speed Gust Speed Precip Events Conditions
12:54 AM 34.0 °F 28.8 °F 30.0 °F 85% 30.23 in 10.0 mi South 5.8 mph - N/A   Overcast
1:04 AM 33.8 °F 28.6 °F 30.2 °F 87% 30.19 in 10.0 mi SSW 5.8 mph - N/A   Overcast
1:54 AM 34.0 °F 28.8 °F 30.0 °F 85% 30.22 in 10.0 mi SW 5.8 mph - N/A   Overcast
2:54 AM 33.1 °F 25.5 °F 30.0 °F 89% 30.22 in 10.0 mi West 9.2 mph - N/A   Overcast
3:54 AM 33.1 °F 26.1 °F 30.0 °F 89% 30.21 in 7.0 mi West 8.1 mph - N/A   Overcast
4:54 AM 30.9 °F 24.3 °F 28.9 °F 92% 30.19 in 4.0 mi WSW 6.9 mph - N/A   Overcast
4:59 AM 30.2 °F 24.3 °F 28.4 °F 93% 30.15 in 2.5 mi WSW 5.8 mph - N/A   Overcast
5:54 AM 30.0 °F 25.2 °F 28.9 °F 96% 30.19 in 0.2 mi West 4.6 mph - N/A Fog Light Freezing Fog
6:10 AM 30.2 °F 25.4 °F 28.4 °F 93% 30.15 in 0.2 mi WSW 4.6 mph - N/A Fog Light Freezing Fog
6:54 AM 30.0 °F 22.4 °F 28.9 °F 96% 30.21 in 0.2 mi West 8.1 mph - N/A Fog Light Freezing Fog
7:42 AM 28.4 °F - 28.4 °F 100% 30.17 in 0.2 mi Calm Calm - N/A Fog Light Freezing Fog
7:54 AM 28.9 °F 23.9 °F 28.0 °F 96% 30.23 in 0.2 mi SW 4.6 mph - N/A Fog Light Freezing Fog
8:04 AM 28.4 °F - 28.4 °F 100% 30.17 in 0.2 mi Calm Calm - N/A Fog Light Freezing Fog
8:19 AM 28.4 °F 24.6 °F 28.4 °F 100% 30.18 in 0.2 mi SW 3.5 mph - N/A Fog Light Freezing Fog
8:54 AM 28.9 °F 21.9 °F 28.9 °F 100% 30.24 in 0.2 mi SSW 6.9 mph - N/A Fog Light Freezing Fog
9:54 AM 30.9 °F 22.8 °F 30.0 °F 96% 30.24 in 0.5 mi WSW 9.2 mph - N/A Fog Light Freezing Fog
10:05 AM 30.2 °F 23.4 °F 30.2 °F 100% 30.17 in 1.0 mi SW 6.9 mph - N/A   Overcast
10:30 AM 32.0 °F 24.2 °F 30.2 °F 93% 30.18 in 3.0 mi SW 9.2 mph - N/A   Overcast
10:54 AM 34.0 °F 27.2 °F 32.0 °F 92% 30.23 in 7.0 mi SSW 8.1 mph - N/A   Mostly Cloudy
11:08 AM 35.6 °F 28.6 °F 32.0 °F 87% 30.17 in 8.0 mi SSW 9.2 mph - N/A   Clear
11:54 AM 45.0 °F 41.2 °F 33.1 °F 63% 30.19 in 10.0 mi SW 6.9 mph - N/A   Clear
12:54 PM 51.1 °F - 30.9 °F 46% 30.17 in 10.0 mi Variable 3.5 mph - N/A   Clear
1:54 PM 55.9 °F - 28.9 °F 36% 30.14 in 10.0 mi South 4.6 mph - N/A   Clear
2:54 PM 60.1 °F - 28.0 °F 30% 30.11 in 10.0 mi Variable 3.5 mph - N/A   Clear
3:54 PM 63.0 °F - 27.0 °F 26% 30.09 in 10.0 mi Calm Calm - N/A   Clear
4:54 PM 64.0 °F - 25.0 °F 23% 30.07 in 10.0 mi SSE 8.1 mph - N/A   Clear
5:54 PM 64.9 °F - 26.1 °F 23% 30.08 in 10.0 mi East 4.6 mph - N/A   Clear
6:54 PM 64.0 °F - 25.0 °F 23% 30.08 in 10.0 mi SE 11.5 mph - N/A   Clear
7:54 PM 57.9 °F - 30.9 °F 36% 30.10 in 10.0 mi SSE 11.5 mph - N/A   Clear
8:54 PM 51.1 °F - 33.1 °F 50% 30.11 in 10.0 mi SE 11.5 mph - N/A   Clear
9:54 PM 48.0 °F - 33.1 °F 56% 30.13 in 10.0 mi SSE 8.1 mph - N/A   Clear
10:54 PM 43.0 °F 37.7 °F 33.1 °F 68% 30.15 in 10.0 mi South 9.2 mph - N/A   Clear
11:54 PM 39.0 °F 33.4 °F 32.0 °F 76% 30.14 in 10.0 mi South 8.1 mph - N/A   Clear